Volver al catálogo

FENGYUN 1C DEB

ActivoSSO
NORAD 30555·DEBRIS·🇨🇳 China

Lanzado May 10, 1999 desde Taiyuan Satellite Launch Center

Loading…

Próximos Pases (próximas 24 horas)

TLE

ActualizadoSource: Space-Track

Época: Sep 14, 2026, 09:40 UTC

1 30555U 99025AKV 26257.40282675  .00001553  00000-0  71503-3 0  9992
2 30555  98.7354 313.3801 0042775 195.7964 228.3396 14.22079597  8536

Sigue FENGYUN 1C DEB en tiempo real con AllMySat

Download on the App Store